FW0052 Weather Reports


Display with metric or nautical units.
time (UTC)temp
F
wind
direction
speed
MPH
gust
MPH
rain 1hr
in
rain 24hr
in
rain mn
in
humidity
%
barometer
mb
20260510230019 82 89 12.0 25.0 0.00 0.00 0.00 25 1006.4
20260510223017 82 91 13.0 25.0 0.00 0.00 0.00 26 1006.3
20260510220017 85 85 11.0 25.0 0.00 0.00 0.00 24 1006.9
20260510213016 87 356 4.0 17.0 0.00 0.00 0.00 13 1006.7
20260510210016 88 103 3.0 17.0 0.00 0.00 0.00 13 1006.9
20260510203016 86 7 3.0 15.0 0.00 0.00 0.00 14 1007.0
20260510200036 86 143 3.0 12.0 0.00 0.00 0.00 17 1007.0
20260510193019 85 18 2.0 11.0 0.00 0.00 0.00 18 1007.0
20260510190016 85 337 2.0 11.0 0.00 0.00 0.00 18 1007.1
20260510183016 84 329 3.0 10.0 0.00 0.00 0.00 19 1007.2
20260510180056 84 41 1.0 9.0 0.00 0.00 0.00 21 1007.5
20260510173016 82 94 2.0 9.0 0.00 0.00 0.00 23 1007.6
20260510170016 81 83 1.0 8.0 0.00 0.00 0.00 23 1007.7
20260510163036 78 217 2.0 14.0 0.00 0.00 0.00 25 1007.7
20260510160038 72 145 4.0 17.0 0.00 0.00 0.00 35 1007.8
20260510153036 72 108 9.0 22.0 0.00 0.00 0.00 38 1008.1
20260510150016 71 94 10.0 22.0 0.00 0.00 0.00 32 1008.0
20260510143015 67 98 9.0 21.0 0.00 0.00 0.00 34 1008.0
20260510140015 62 121 2.0 9.0 0.00 0.00 0.00 41 1008.1
20260510133016 61 312 0.0 6.0 0.00 0.00 0.00 38 1007.4
20260510130015 62 313 1.0 6.0 0.00 0.00 0.00 34 1006.8
20260510123018 65 29 0.0 8.0 0.00 0.00 0.00 29 1006.7
20260510120015 66 49 1.0 11.0 0.00 0.00 0.00 29 1007.0
20260510113016 67 344 3.0 12.0 0.00 0.00 0.00 31 1007.6
20260510110015 69 56 3.0 17.0 0.00 0.00 0.00 27 1007.8
20260510103035 67 314 4.0 17.0 0.00 0.00 0.00 27 1008.6
20260510100015 65 299 2.0 15.0 0.00 0.00 0.00 27 1007.9
20260510093015 69 338 5.0 15.0 0.00 0.00 0.00 24 1007.3
20260510090019 67 313 7.0 16.0 0.00 0.00 0.00 24 1006.9
20260510083017 67 299 9.0 16.0 0.00 0.00 0.00 23 1006.6
20260510080017 65 304 4.0 13.0 0.00 0.00 0.00 25 1006.6
20260510073016 62 328 3.0 12.0 0.00 0.00 0.00 29 1006.3
20260510070017 58 6 1.0 8.0 0.00 0.00 0.00 36 1005.9
20260510063016 58 301 0.0 6.0 0.00 0.00 0.00 38 1005.6
20260510060017 57 211 1.0 6.0 0.00 0.00 0.00 50 1005.0
20260510053017 58 336 0.0 4.0 0.00 0.00 0.00 45 1004.5
20260510050035 60 7 0.0 5.0 0.00 0.00 0.00 42 1004.2
20260510043015 62 21 0.0 5.0 0.00 0.00 0.00 38 1003.5
20260510040015 66 76 0.0 3.0 0.00 0.00 0.00 34 1003.1
20260510033016 71 0.0 7.0 0.00 0.00 0.00 25 1002.7
20260510030015 74 325 1.0 7.0 0.00 0.00 0.00 18 1002.1
20260510023017 75 327 0.0 6.0 0.00 0.00 0.00 21 1001.5
20260510020019 81 328 0.0 19.0 0.00 0.00 0.00 16 1001.1
20260510013017 84 325 7.0 19.0 0.00 0.00 0.00 13 1000.6
20260510010057 84 329 5.0 14.0 0.00 0.00 0.00 17 1000.4
20260510003016 83 2 0.0 8.0 0.00 0.00 0.00 21 1000.6
20260510000016 86 336 1.0 26.0 0.00 0.00 0.00 15 1000.8
20260509233017 86 324 6.0 26.0 0.00 0.00 0.00 14 1001.2